Location: Bernadets
(43.3537°N, 0.3167°E)
Time: 04:10:26
(UTC+00:00)

Cosmos 2123 Rocket - Pass Details

Date: 24 October 2021
Orbit: 961 x 992 km, 82.9° (Epoch: 29 November)

Event Time Altitude Azimuth Distance (km) Brightness Sun altitude
Rises 17:53:49 0° 353° (N) 3,716 7.0 -10.2°
Reaches altitude 10° 17:56:22 10° 355° (N) 2,761 6.4 -10.6°
Maximum altitude 18:02:43 74° 81° (E) 1,026 4.0 -11.8°
Drops below altitude 10° 18:08:58 10° 167° (SSE) 2,726 6.3 -12.9°
Sets 18:11:28 0° 169° (SSE) 3,666 6.9 -13.4°
